Miscellaneous Local Product
Issued by NWS Hastings, NE

Home | Current Version | Previous Version | Text Only | Print | Product List | Glossary Off
Versions: 1 2 3 4 5 6 7 8 9 10 11 12 13 14 15 16 17 18 19 20 21 22 23 24 25 26 27 28 29 30 31 32 33 34 35 36 37 38 39 40 41 42 43 44 45 46 47 48 49 50

000
AXUS43 KGID 011502
MISGRI

GID CWA HOURLY WEATHER ROUNDUP
NATIONAL WEATHER SERVICE HASTINGS NE
1000 AM CDT WED APR 01 2015

NOTE: "FAIR" INDICATES FEW OR NO CLOUDS BELOW 12,000 FEET WITH NO
SIGNIFICANT WEATHER AND/OR OBSTRUCTIONS TO VISIBILITY.

...SOUTH CENTRAL NEBRASKA...

CITY           SKY/WX    TMP DP  RH WIND       PRES   REMARKS
GRAND ISLAND   SUNNY     66  43  43 S21G33    29.71F
HASTINGS       SUNNY     64  44  48 S21G35    29.71F
KEARNEY        SUNNY     66  43  42 S25G32    29.69F
ORD            SUNNY     63  41  44 S22       29.64F
YORK           SUNNY     63  45  51 S21G28    29.73F
AURORA         SUNNY     63  45  52 S21G28    29.72F
LEXINGTON      SUNNY     63  43  47 S28G33    29.66F
HOLDREGE       SUNNY     64  43  46 S23G32    29.70F
HEBRON         SUNNY     64  43  47 S16       29.76F

...NEBRASKA PANHANDLE...

CITY           SKY/WX    TMP DP  RH WIND       PRES   REMARKS
CHADRON        PTSUNNY   57  32  38 N9        29.68R
ALLIANCE       CLOUDY    58  28  32 W21       29.64R
SCOTTSBLUFF    CLOUDY    56  29  35 W9        29.70R
SIDNEY         CLOUDY    57  29  34 W12       29.70S

...WESTERN AND NORTH CENTRAL NEBRASKA...

CITY           SKY/WX    TMP DP  RH WIND       PRES   REMARKS
VALENTINE      CLOUDY    64  40  41 W17       29.57R
AINSWORTH      CLOUDY    61  41  47 S22G28    29.55F
ONEILL         MOSUNNY   63  41  44 S23G29    29.59F
BROKEN BOW     MOSUNNY   67  44  43 S28G43    29.62F
IMPERIAL       MOSUNNY   61  40  45 SW12      29.66F
NORTH PLATTE   MOSUNNY   63  45  51 S14       29.64F
MCCOOK         SUNNY     65  44  46 S20G31    29.68S

...EASTERN NEBRASKA...

CITY           SKY/WX    TMP DP  RH WIND       PRES   REMARKS
NORFOLK        SUNNY     64  43  46 S25G35    29.67F
SO SIOUX CITY  SUNNY     69  36  29 S25G36    29.72F
TEKAMAH        SUNNY     69  36  29 S30G38    29.75F
COLUMBUS       SUNNY     64  41  42 S21G26    29.74S
ALBION         SUNNY     61  42  49 S20G26    29.69F
OMAHA EPPLEY   MOSUNNY   65  34  31 S22       29.77F
OFFUTT AFB     SUNNY     65  34  31 SE15      29.78F
MILLARD        SUNNY     66  35  31 S15G25    29.78F
LINCOLN        SUNNY     68  44  42 S21G32    29.75F
NEBRASKA CITY  SUNNY     64  30  28 S20       29.81S
BEATRICE       SUNNY     64  43  46 S13       29.78F
FALLS CITY     SUNNY     67  37  33 S16G25    29.82F

...NORTHERN KANSAS...

CITY           SKY/WX    TMP DP  RH WIND       PRES   REMARKS
GOODLAND       MOSUNNY   57  44  62 S20       29.70F
HILL CITY      SUNNY     67  44  43 S28G38    29.72F
NORTON         SUNNY     68  41  37 S22G29    29.70F
PHILLIPSBURG   SUNNY     72  45  37 S21       29.72F
SMITH CENTER   SUNNY     66  45  45 S14G21    29.75F
BELOIT         SUNNY     63  45  51 S10       29.75S
HAYS           SUNNY     68  45  42 S26G32    29.75S
RUSSELL        SUNNY     67  46  47 S21G28    29.73F
CONCORDIA      SUNNY     67  48  50 S14       29.76F
SALINA         SUNNY     68  50  52 S15       29.79S
TOPEKA         MOSUNNY   63  44  50 S13       29.85F



USA.gov is the U.S. government's official web portal to all federal, state and local government web resources and services.